Regional Weather Roundup
Issued by NWS

Home | Current Version | Previous Version | Graphics & Text | Print | Product List | Glossary On
Versions: 1 2 3 4 5 6 7 8 9 10 11 12 13 14 15 16 17 18 19 20 21 22 23 24 25 26 27 28 29 30 31 32 33 34 35 36 37 38 39 40 41 42 43 44 45 46 47 48 49 50
000
ASUS45 KSLC 260710
RWRUT

UTAH REGIONAL WEATHER ROUNDUP
NATIONAL WEATHER SERVICE SALT LAKE CITY UT
1200 AM MST MON JAN 26 2015

UTZ001>011-023>025-260800-

NORTHERN UTAH

CITY           SKY/WX    TMP DP  RH WIND       PRES   REMARKS
BRIGHAM CITY   CLEAR     33  29  86 S8        30.44R WCI  26
HILL AFB       CLEAR     31  30  93 SE6       30.41F WCI  26
LOGAN          CLEAR     29  27  92 SE3       30.43R FOG
OGDEN          CLEAR     33  30  88 S8        30.42S WCI  26
PROVO AIRPORT  CLEAR     28  27  93 E6        30.43R WCI  22
SALT LAKE CITY CLEAR     33  29  85 CALM      30.42S
VERNAL         PTCLDY    25  19  78 W6        30.42R WCI  18
WENDOVER       CLEAR     34  28  80 CALM      30.42F
HEBER CITY     CLEAR     25  23  93 CALM      30.42R THUNDER
WEST JORDAN    CLEAR     32  30  93 CALM      30.43R

$$

UTZ012>022-026-027-260800-

SOUTHERN/CENTRAL UTAH

CITY           SKY/WX    TMP DP  RH WIND       PRES   REMARKS
BLANDING       CLEAR     42  24  48 N15       30.37F
BRYCE CANYON   CLEAR     26  23  88 W12       30.42S WCI  16
CEDAR CITY     CLEAR     30  26  85 S6        30.39R WCI  24
DELTA          CLEAR     33  30  88 CALM      30.40S
MILFORD        CLEAR     31  26  82 S5        30.40R WCI  26
MOAB/CYNLANDS  CLEAR     30  23  75 CALM      30.36R
PRICE          CLEAR     32  22  66 N12       30.37S WCI  23
ST GEORGE      SUNNY     50  28  43 E3        30.31R
KANAB          CLEAR     37  25  60 NW15      30.38R WCI  28

$$

REGIONAL REPORTS     COLORADO/ARIZONA

CITY           SKY/WX    TMP DP  RH WIND       PRES   REMARKS
CRAIG, CO      CLEAR     17  15  92 W3        30.42F
GRAND JUNCTION CLEAR     33  24  69 E3        30.36S
RIFLE          CLEAR     27  22  81 S3        30.41S
MONTROSE       CLEAR     26  20  77 S7        30.39S WCI  18
CORTEZ         CLEAR     27  21  78 NE5       30.34R WCI  22
PAGE, AZ       NOT AVBL
GRAND CANYON   CLEAR     30  19  63 N3        30.36S
KINGMAN        MOCLDY    56  24  29 E9        30.20S
FLAGSTAFF      PTCLDY    28  19  69 CALM      30.35S

$$

REGIONAL REPORTS    NEVADA/IDAHO/WYOMING

CITY           SKY/WX    TMP DP  RH WIND       PRES   REMARKS
LAS VEGAS, NV  MOCLDY    59  32  36 SW3       30.14S
ELY            CLEAR     28  23  81 S7        30.43R WCI  21
ELKO           CLEAR     31  27  85 E6        30.39S WCI  25
POCATELLO, ID  FOG       30  30 100 CALM      30.45R VSB 1/4
BURLEY         CLOUDY    31  29  92 NE14      30.40F FOG     WCI  21
EVANSTON, WY   PTCLDY    32  28  85 SW6       30.42S WCI  26
ROCK SPRINGS   MOCLDY    34  27  75 W12       30.39S WCI  25
KEMMERER       PTCLDY    32  30  93 W7        30.41F WCI  26

$$



USA.gov is the U.S. government's official web portal to all federal, state and local government web resources and services.